Hourly Data Report for October 01, 2018

VICTORIA UNIVERSITY CS
BRITISH COLUMBIA
Current Station Operator: ECCC - MSC

48°27'25.200" N
123°18'16.600" W
60.10 m
1018598
71783
WYJ

Download Data

Hourly Data (October 2018)
Hourly Data Report for October 1, 2018
TIME
LST
Temp Definition
°C
Dew Point Definition
°C
Rel Hum Definition
%
Precip. Amount Definition
mm

Wind Dir Definition
10's deg

Wind Spd Definition
km/h
Visibility Definition
km
Stn Press Definition
kPa
Hmdx Definition


Wind Chill Definition


Weather Definition


00:00 11.1 10.8 98 0.0 0 1   99.88     LegendNANA
01:00 11.4 11.1 98 0.0 0 1   99.87     LegendNANA
02:00 11.7 11.4 98 0.0 3 1   99.87     LegendNANA
03:00 12.0 11.6 98 0.2 3 5   99.87     LegendNANA
04:00 12.2 11.7 97 0.3 31 6   99.89     LegendNANA
05:00 12.3 11.8 97 1.2 36 2   99.90     LegendNANA
06:00 12.2 11.8 97 0.7 19 3   99.97     LegendNANA
07:00 12.0 11.7 98 0.6 24 3   100.02     LegendNANA
08:00 12.7 12.4 98 0.2 22 3   100.08     LegendNANA
09:00 13.6 13.2 98 0.0 22 3   100.11     LegendNANA
10:00 13.4 12.8 96 0.0 12 2   100.12     LegendNANA
11:00 12.4 11.8 96 0.2 15 4   100.18     LegendNANA
12:00 13.4 13.0 97 0.0 17 3   100.21     LegendNANA
13:00 14.1 13.3 95 0.0 16 2   100.20     LegendNANA
14:00 15.3 13.6 90 0.0 17 4   100.17     LegendNANA
15:00 15.8 13.6 87 0.0 16 4   100.16     LegendNANA
16:00 14.7 13.2 91 0.0 17 6   100.15     LegendNANA
17:00 14.4 12.9 90 0.0 19 5   100.14     LegendNANA
18:00 13.5 12.6 94 0.0 23 4   100.17     LegendNANA
19:00 13.4 12.7 96 0.0 24 3   100.19     LegendNANA
20:00 13.4 12.8 96 0.0 18 3   100.18     LegendNANA
21:00 13.1 12.6 96 0.0 22 4   100.13     LegendNANA
22:00 12.7 12.1 96 0.0 23 4   100.10     LegendNANA
23:00 13.3 12.2 93 0.0 24 5   100.07     LegendNANA

Notes on Data Quality.

Legend

  • E = Estimated
  • M = Missing
  • NA = Not Available*
  • [empty] = Indicates an unobserved value
Date modified: